Date String (YYYY-MM-DD hh:mm:ss) UTC,Instrument flags,absolute air pressure of the measurement (hPa),sample flow rate (lpm),inlet stack bypass flow (lpm),air temperature of the measurement (°C),ambient temperature measured by the external sensor (°C),aerosol sample conditioner tube jacket temperature (°C),OPC LED temperature (°C),internal box temperature (°C),relative humidity of the measurement (%),span deviation,mass concentration of particles derived from Lorenz-Mie calculation of OPC scattering (μg/m³),mass concentration of particles derived from Lorenz-Mie calculation of OPC scattering (μg/m³),mass concentration of particles derived from Lorenz-Mie calculation of OPC scattering (μg/m³)
DateTimeUTC,F1_M11,P_M11,Q1_M11,Q2_M11,T1_M11,T2_M11,T3_M11,T4_M11,T5_M11,U1_M11,ZSPAN_M11,X0_M11,X2_M11,X1_M11
2023-09-26 13:00:00,SystemResetWarning,0835.5,5.01,000.00,028.8,027.3,000.0,037.3,030.3,11.5,0000.0,0012.33,0004.68,0003.75
2023-09-26 13:01:00,SystemResetWarning,0835.6,5.00,000.00,028.8,027.3,000.0,037.3,030.4,11.5,0000.0,0012.75,0004.68,0003.76
2023-09-26 13:02:00,SystemResetWarning,0835.5,4.99,000.00,028.8,027.3,000.0,037.3,030.3,11.5,0000.0,0012.76,0004.67,0003.76
2023-09-26 13:03:00,SystemResetWarning,0835.5,4.99,000.00,028.8,027.3,000.0,037.3,030.3,11.5,0000.0,0012.92,0004.71,0003.78
2023-09-26 13:04:00,SystemResetWarning,0835.5,5.00,000.00,028.8,027.3,000.0,037.3,030.3,11.6,0000.0,0014.04,0004.76,0003.78
2023-09-26 13:05:00,SystemResetWarning,0835.5,5.00,000.00,028.8,027.3,000.0,037.3,030.3,11.5,0000.0,0014.35,0004.75,0003.78
2023-09-26 13:06:00,SystemResetWarning,0835.5,5.01,000.00,028.8,027.3,000.0,037.3,030.3,11.5,0000.0,0014.85,0004.76,0003.78
2023-09-26 13:07:00,SystemResetWarning,0835.5,5.00,000.00,028.7,027.3,000.0,037.3,030.3,11.5,0000.0,0014.31,0004.72,0003.78
2023-09-26 13:08:00,SystemResetWarning,0835.5,5.00,000.00,028.7,027.3,000.0,037.3,030.3,11.5,0000.0,0013.78,0004.71,0003.78
2023-09-26 13:09:00,SystemResetWarning,0835.5,5.00,000.00,028.7,027.3,000.0,037.3,030.3,11.5,0000.0,0013.59,0004.69,0003.77
2023-09-26 13:10:00,SystemResetWarning,0835.5,4.99,000.00,028.7,027.3,000.0,037.3,030.3,11.6,0000.0,0013.75,0004.69,0003.78
2023-09-26 13:11:00,SystemResetWarning,0835.5,4.99,000.00,028.7,027.3,000.0,037.3,030.3,11.6,0000.0,0013.82,0004.74,0003.78
2023-09-26 13:12:00,SystemResetWarning,0835.6,5.00,000.00,028.7,027.3,000.0,037.3,030.3,11.6,0000.0,0013.77,0004.80,0003.78
2023-09-26 13:13:00,SystemResetWarning,0835.5,5.01,000.00,028.7,027.3,000.0,037.3,030.3,11.6,0000.0,0013.72,0004.78,0003.80
2023-09-26 13:14:00,SystemResetWarning,0835.5,5.01,000.00,028.7,027.3,000.0,037.3,030.3,11.6,0000.0,0013.68,0004.76,0003.80
2023-09-26 13:15:00,SystemResetWarning,0835.5,4.99,000.00,028.7,027.3,000.0,037.3,030.3,11.6,0000.0,0012.75,0004.71,0003.80
2023-09-26 13:16:00,SystemResetWarning,0835.5,4.99,000.00,028.7,027.3,000.0,037.3,030.3,11.7,0000.0,0012.02,0004.71,0003.80
2023-09-26 13:17:00,SystemResetWarning,0835.5,5.00,000.00,028.7,027.3,000.0,037.3,030.3,11.6,0000.0,0011.51,0004.70,0003.81
2023-09-26 13:18:00,SystemResetWarning,0835.5,5.00,000.00,028.7,027.3,000.0,037.3,030.3,11.7,0000.0,0011.91,0004.74,0003.82
2023-09-26 13:19:00,SystemResetWarning,0835.5,5.00,000.00,028.7,027.3,000.0,037.3,030.3,11.7,0000.0,0012.06,0004.76,0003.83
2023-09-26 13:20:00,SystemResetWarning,0835.5,5.00,000.00,028.7,027.3,000.0,037.2,030.3,11.7,0000.0,0012.10,0004.76,0003.82
2023-09-26 13:21:00,SystemResetWarning,0835.5,5.02,000.00,028.7,027.3,000.0,037.2,030.3,11.7,0000.0,0011.67,0004.75,0003.82
2023-09-26 13:22:00,SystemResetWarning,0835.5,5.00,000.00,028.7,027.3,000.0,037.2,030.3,11.6,0000.0,0011.56,0004.69,0003.82
2023-09-26 13:23:00,SystemResetWarning,0835.5,4.99,000.00,028.7,027.3,000.0,037.2,030.3,11.6,0000.0,0011.98,0004.68,0003.82
2023-09-26 13:24:00,SystemResetWarning,0835.5,4.99,000.00,028.7,027.3,000.0,037.2,030.3,11.7,0000.0,0011.90,0004.68,0003.82
2023-09-26 13:25:00,SystemResetWarning,0835.5,5.00,000.00,028.7,027.3,000.0,037.2,030.3,11.6,0000.0,0011.74,0004.65,0003.81
2023-09-26 13:26:00,SystemResetWarning,0835.5,5.01,000.00,028.7,027.3,000.0,037.2,030.3,11.7,0001.0,0011.62,0004.63,0003.80
2023-09-26 13:27:00,SystemResetWarning,0835.5,5.01,000.00,028.7,027.3,000.0,037.2,030.3,11.6,0000.5,0011.63,0004.62,0003.80
2023-09-26 13:28:00,SystemResetWarning,0835.5,5.00,000.00,028.7,027.3,000.0,037.2,030.3,11.7,0001.0,0011.40,0004.62,0003.81
2023-09-26 13:29:00,SystemResetWarning,0835.5,5.00,000.00,028.7,027.3,000.0,037.2,030.3,11.7,0000.0,0010.90,0004.59,0003.81
2023-09-26 13:30:00,SystemResetWarning,0835.5,4.99,000.00,028.7,027.3,000.0,037.2,030.4,11.6,0001.0,0010.68,0004.56,0003.80
2023-09-26 13:31:00,SystemResetWarning,0835.5,4.99,000.00,028.7,027.3,000.0,037.2,030.3,11.7,0002.9,0011.68,0004.58,0003.81
2023-09-26 13:32:00,SystemResetWarning,0835.5,5.00,000.00,028.7,027.3,000.0,037.2,030.3,11.7,0002.8,0012.31,0004.59,0003.81
2023-09-26 13:33:00,SystemResetWarning,0835.5,5.01,000.00,028.7,027.3,000.0,037.2,030.4,11.6,0003.2,0011.65,0004.59,0003.81
2023-09-26 13:34:00,SystemResetWarning,0835.5,5.00,000.00,028.8,027.3,000.0,037.2,030.4,11.7,0002.8,0010.77,0004.54,0003.81
2023-09-26 13:35:00,SystemResetWarning,0835.5,5.00,000.00,028.8,027.3,000.0,037.2,030.4,12.0,0002.3,0010.90,0004.56,0003.82
2023-09-26 13:36:00,SystemResetWarning,0835.5,5.00,000.00,028.8,027.4,000.0,037.2,030.4,12.0,0002.7,0011.39,0004.57,0003.82
2023-09-26 13:37:00,SystemResetWarning,0835.4,5.00,000.00,028.8,027.4,000.0,037.2,030.4,11.8,0003.0,0012.48,0004.58,0003.82
2023-09-26 13:38:00,SystemResetWarning,0835.6,5.00,000.00,028.8,027.4,000.0,037.2,030.4,11.8,0002.9,0012.59,0004.56,0003.83
2023-09-26 13:39:00,SystemResetWarning,0835.5,5.00,000.00,028.8,027.4,000.0,037.2,030.4,11.8,0002.4,0013.22,0004.58,0003.82
2023-09-26 13:40:00,SystemResetWarning,0835.6,5.00,000.00,028.8,027.4,000.0,037.2,030.4,11.6,0001.7,0013.60,0004.57,0003.81
2023-09-26 13:41:00,SystemResetWarning,0835.5,5.00,000.00,028.8,027.4,000.0,037.2,030.4,11.6,0002.0,0013.97,0004.56,0003.81
2023-09-26 13:42:00,SystemResetWarning,0835.7,5.00,000.00,028.8,027.4,000.0,037.2,030.4,11.6,0002.2,0013.16,0004.57,0003.83
2023-09-26 13:43:00,SystemResetWarning,0835.5,5.00,000.00,028.8,027.4,000.0,037.2,030.4,11.7,0002.0,0012.36,0004.58,0003.83
2023-09-26 13:44:00,SystemResetWarning,0835.6,5.00,000.00,028.8,027.4,000.0,037.2,030.4,11.7,0001.2,0012.59,0004.63,0003.83
2023-09-26 13:45:00,SystemResetWarning,0835.5,5.00,000.00,028.8,027.4,000.0,037.2,030.4,11.8,0001.0,0012.54,0004.65,0003.83
2023-09-26 13:46:00,SystemResetWarning,0835.6,5.01,000.00,028.8,027.4,000.0,037.3,030.5,11.9,0001.8,0012.26,0004.62,0003.82
2023-09-26 13:47:00,SystemResetWarning,0835.6,5.01,000.00,028.8,027.4,000.0,037.3,030.5,11.9,0000.5,0012.55,0004.63,0003.82
2023-09-26 13:48:00,SystemResetWarning,0835.6,5.00,000.00,028.8,027.5,000.0,037.3,030.5,11.9,0000.2,0011.41,0004.62,0003.84
2023-09-26 13:49:00,SystemResetWarning,0835.6,5.00,000.00,028.8,027.5,000.0,037.3,030.4,12.0,0000.3,0010.93,0004.64,0003.84
2023-09-26 13:50:00,SystemResetWarning,0835.6,4.99,000.00,028.8,027.5,000.0,037.3,030.5,12.1,0000.4,0011.02,0004.63,0003.85
2023-09-26 13:51:00,SystemResetWarning,0835.6,5.00,000.00,028.8,027.5,000.0,037.3,030.5,12.4,0000.5,0010.72,0004.63,0003.86
2023-09-26 13:52:00,SystemResetWarning,0835.6,5.00,000.00,028.8,027.5,000.0,037.3,030.5,12.3,0000.0,0011.11,0004.68,0003.87
2023-09-26 13:53:00,SystemResetWarning,0835.6,5.00,000.00,028.9,027.5,000.0,037.3,030.5,12.1,0000.0,0011.14,0004.62,0003.85
2023-09-26 13:54:00,SystemResetWarning,0835.6,4.99,000.00,028.9,027.5,000.0,037.3,030.5,11.8,0000.0,0011.83,0004.64,0003.85
2023-09-26 13:55:00,SystemResetWarning,0835.6,5.00,000.00,028.9,027.5,000.0,037.3,030.5,11.7,0000.0,0011.80,0004.63,0003.85
2023-09-26 13:56:00,SystemResetWarning,0835.6,5.00,000.00,028.9,027.5,000.0,037.3,030.5,11.7,0000.8,0012.28,0004.62,0003.85
2023-09-26 13:57:00,SystemResetWarning,0835.7,5.00,000.00,028.9,027.5,000.0,037.3,030.5,11.8,0000.0,0012.42,0004.67,0003.85
2023-09-26 13:58:00,SystemResetWarning,0835.9,5.00,000.00,028.9,027.6,000.0,037.3,030.6,12.2,0000.0,0011.81,0004.67,0003.86
2023-09-26 13:59:00,SystemResetWarning,0835.8,5.00,000.00,028.9,027.6,000.0,037.3,030.6,12.9,0000.0,0012.64,0004.65,0003.85
